SCP
-0 -0 0 -0 0 0 0 0 0 0 0 0 0 0 0 0 0 0 0 0 0 0 0 0 0 0 0 0 0 0 0 0 0 0 0 0 0 0
0 0 -0 -0 0 0 0 0 0 0 0 0 -0 -0 0 0 0 0 0 0 0 0 0 0 0 0 0 0 0 0 0 0 0 0 0 0 0 0
0 0 0 0 -0 -0 -0 -0 0 0 0 -0 -0 -0 -0 0 0 0 0 0 0 0 0 0 0 0 0 0 0 0 0 0 0 0 0 0 0 0
-0 0 0 0 0 -0 -0 0 0 0 0 0 -0 -0 0 0 0 0 0 0 0 0 0 0 0 0 0 0 0 0 0 0 0 0 0 0 0 0
-0 -0 -0 -0 0 -0 0 0 0 0 0 0 0 0 0 0 0 0 0 0 0 0 0 0 0 0 0 0 0 0 0 0 0 0 0 0 0 0
-0 -0 -0 -0 -0 0 0 0 0 -0 0 0 0 0 0 0 0 0 0 0 0 0 0 0 0 0 0 0 0 0 0 0 0 0 0 0 0 0
-0 -0 -0 -0 -0 -0 0 0 -0 -0 0 0 0 0 0 0 0 0 0 0 0 0 0 0 0 0 0 0 0 0 0 0 0 0 0 0 0 0
-0 -0 -0 -0 -0 -0 -0 -0 -0 0 0 0 0 0 0 1 1 0 0 0 0 0 0 0 0 0 0 0 0 0 0 0 0 0 0 0 0 -0
-0 -0 -0 -0 -0 -0 -0 -0 -0 -0 -0 0 0 1 1 1 1 1 0 0 0 0 0 0 0 0 0 0 0 0 0 0 0 0 0 0 0 -0
-0 -0 -0 -0 -0 -0 0 0 0 0 0 0 0 1 1 2 2 2 1 1 0 0 0 0 0 0 0 0 0 0 0 0 0 0 0 0 -0 0
-0 -0 0 -0 -0 -0 0 0 0 0 1 0 0 0 0 0 0 1 1 0 0 0 0 0 0 0 0 0 0 0 0 0 0 0 0 0 -0 0
0 0 0 0 0 0 0 1 0 1 1 2 2 1 0 0 0 0 1 1 1 0 0 0 0 0 0 0 0 0 0 0 0 0 0 0 0 0
1 1 1 0 0 0 0 1 1 1 2 2 2 2 2 2 3 2 0 0 1 1 1 0 0 0 0 0 0 0 0 0 0 0 0 0 -0 0
1 1 1 1 0 0 0 0 0 0 2 2 2 2 3 3 3 2 2 0 0 1 1 0 0 0 0 0 0 0 0 0 0 0 0 -0 0 0
1 2 2 1 1 0 0 0 0 0 1 1 2 2 3 3 2 2 2 1 1 0 0 0 0 0 0 0 0 0 0 0 0 0 -0 0 0 0
0 1 1 1 1 1 1 0 0 0 1 1 2 2 1 1 1 1 1 1 0 0 0 0 0 0 0 0 0 0 0 0 0 -0 0 0 0 0
1 2 1 1 2 1 1 2 1 0 0 1 1 0 0 1 1 0 0 0 0 0 0 0 0 0 0 0 0 0 -0 -0 0 0 0 0 0 0
1 2 2 2 2 3 3 2 1 0 0 0 0 0 0 0 0 0 0 0 0 0 0 0 0 0 0 0 0 0 0 0 0 0 0 0 0 0
2 2 2 3 3 3 2 1 1 1 0 0 0 0 0 0 0 0 0 0 0 0 0 0 0 0 0 0 0 0 0 0 0 0 0 0 0 0
2 3 2 2 2 2 1 1 0 0 0 0 0 0 0 0 0 0 0 0 0 0 0 0 0 0 0 0 0 0 0 0 0 0 0 0 0 0
1 1 1 0 0 0 0 0 0 0 0 0 0 0 0 0 0 0 0 0 0 0 0 0 0 0 0 0 0 0 0 0 0 0 0 0 0 0
0 0 0 0 0 0 0 0 0 0 0 0 0 0 0 0 0 0 0 0 0 0 0 0 0 0 0 0 0 0 0 0 0 0 0 0 0 0
0 0 0 0 0 0 0 0 0 0 0 0 0 0 0 0 0 0 0 0 0 0 0 0 0 0 0 0 0 0 0 0 0 0 0 0 0 0
Wind_Speed_500mb
33 32 31 31 30 34 33 34 32 37 41 34 34 27 24 24 23 27 29 28 28 27 26 26 26 27 29 30 30 28 26 27 27 27 27 29 27 22
35 36 34 32 35 35 34 35 37 39 48 42 34 34 30 29 30 33 34 35 38 37 36 36 35 33 33 35 35 33 29 28 28 29 30 28 23 21
33 38 41 37 38 40 43 45 46 47 53 53 46 39 39 41 41 41 42 46 46 46 46 44 44 43 41 41 41 37 34 31 29 28 27 23 17 19
42 42 41 43 47 45 46 51 54 54 59 65 62 57 54 50 50 51 49 51 53 53 54 53 51 50 49 48 47 44 40 33 33 30 22 23 21 22
51 53 47 44 48 54 56 57 57 57 62 70 75 73 69 66 65 66 66 64 64 61 61 63 61 57 54 54 54 51 47 43 40 40 29 28 25 26
51 54 51 49 46 47 53 60 64 66 69 73 77 81 80 77 78 79 82 81 81 74 71 70 69 68 63 52 59 63 62 55 53 48 41 35 29 30
58 55 53 51 47 46 49 50 54 60 67 73 81 85 85 84 82 83 89 86 89 83 84 86 78 77 76 68 60 71 68 63 63 55 50 45 32 33
65 63 61 59 58 57 58 59 61 63 67 71 78 84 85 84 80 80 84 85 94 81 70 76 79 91 86 76 67 74 82 74 68 59 53 51 40 33
78 75 73 72 69 69 67 69 72 75 75 79 89 92 93 86 85 86 88 90 95 91 83 86 79 86 80 87 80 79 88 75 71 65 56 52 44 36
82 82 83 81 78 74 73 76 77 77 76 76 83 89 86 80 78 76 79 89 95 92 89 96 91 95 87 87 85 76 87 89 74 71 54 56 45 39
81 81 80 77 74 71 71 74 75 78 75 73 74 74 65 53 53 70 80 85 94 91 88 91 88 92 100 100 96 83 78 89 69 66 57 57 49 42
69 72 72 71 68 64 68 70 76 76 68 57 45 44 47 52 54 54 61 74 83 87 75 71 76 79 67 86 94 89 82 80 57 54 48 51 54 49
62 64 62 57 54 52 51 54 60 43 42 50 56 61 58 61 55 54 58 64 60 79 73 80 86 75 82 62 66 96 91 66 47 52 59 55 57 46
64 63 61 53 47 44 43 45 39 39 45 51 55 59 61 62 61 63 61 62 63 58 55 60 76 82 77 75 65 53 51 56 56 63 60 60 57 51
59 59 56 53 48 44 42 39 39 42 46 55 58 55 56 58 61 63 62 63 61 44 44 43 54 61 66 59 50 62 44 60 56 65 59 64 59 52
52 52 52 54 54 52 51 48 50 49 47 51 53 56 57 59 63 64 67 52 35 35 24 29 37 26 18 17 45 35 53 71 67 65 64 61 55 48
37 44 50 50 51 55 54 52 48 46 48 52 55 55 56 58 58 61 39 23 23 18 20 21 11 18 10 8 29 32 56 58 61 62 64 60 52 46
40 47 51 51 51 49 50 49 48 51 53 54 53 52 52 52 47 32 19 22 14 9 13 10 7 13 16 16 25 39 51 51 56 58 56 54 50 45
44 47 48 46 45 43 43 44 47 47 49 49 49 45 41 33 23 19 22 20 12 9 16 16 13 20 29 38 40 41 34 48 50 55 52 48 43 37
43 45 47 49 49 43 44 44 45 49 48 45 41 33 28 23 21 18 11 8 9 14 17 9 13 20 31 42 36 40 39 44 48 45 49 46 40 38
46 44 42 41 40 40 45 49 51 48 44 41 35 29 27 20 16 11 5 7 9 12 19 21 27 23 25 19 23 40 45 42 33 38 45 48 48 43
41 42 42 44 46 50 51 48 45 44 40 35 32 28 25 19 14 16 10 6 10 18 22 37 31 33 35 30 29 33 35 36 34 33 31 36 43 40
41 43 45 43 42 43 43 42 39 34 32 30 28 25 25 21 19 18 17 15 16 20 25 30 33 35 34 34 31 29 32 33 35 43 47 46 35 32
Wind_Direction_500mb
249 254 259 249 255 260 267 268 277 289 295 297 301 303 305 293 289 280 278 275 276 275 274 273 272 266 266 268 271 276 283 290 294 298 301 303 303 305
251 253 261 259 253 259 263 267 271 280 286 291 300 301 302 296 295 280 278 276 269 270 271 271 270 270 267 265 265 268 272 280 286 291 295 302 295 298
257 257 258 261 260 259 261 264 267 272 280 286 290 292 290 287 288 284 280 274 271 267 268 269 269 268 269 269 264 263 265 271 277 281 292 291 278 285
261 264 265 262 258 259 264 265 267 269 273 280 285 287 287 288 286 282 280 273 270 266 266 269 271 271 271 273 267 259 260 263 268 268 271 266 267 277
260 262 264 265 263 261 261 265 266 268 270 275 281 283 284 283 284 284 284 280 276 274 269 262 260 263 266 267 259 256 252 251 253 259 255 260 260 278
258 256 255 258 261 265 264 265 267 270 273 275 277 280 283 285 284 283 283 283 283 282 278 272 265 260 254 265 258 251 251 248 245 248 251 252 255 266
253 253 254 256 260 264 269 270 271 272 273 275 276 278 279 281 282 287 287 289 286 281 278 274 269 262 253 257 252 253 246 242 246 245 253 250 253 260
254 254 256 259 260 263 266 269 273 274 275 276 278 278 282 285 289 290 293 291 289 292 288 285 277 268 261 251 255 254 247 243 245 248 248 248 246 249
256 258 260 261 264 267 268 269 269 270 273 277 279 279 283 286 291 292 291 291 290 293 288 286 281 275 271 257 250 255 246 250 251 249 242 231 232 233
257 259 261 264 265 266 268 269 269 269 269 271 274 281 285 292 294 293 292 290 290 292 289 283 287 279 272 252 256 255 249 246 257 244 254 223 221 220
257 259 260 262 263 266 267 268 270 271 273 275 278 281 285 286 284 287 288 289 291 293 298 289 290 277 271 268 264 247 247 242 248 249 223 215 207 210
259 260 262 263 264 263 265 269 271 273 283 290 286 282 284 283 283 283 289 291 295 290 302 291 296 284 258 261 266 246 234 239 244 234 211 200 199 206
262 263 265 267 269 269 265 263 267 282 284 286 290 294 292 294 297 302 305 302 302 300 307 299 291 288 278 252 240 231 220 224 233 204 194 195 198 208
264 270 273 275 273 269 265 262 264 270 272 275 281 286 294 303 306 306 305 304 300 297 310 300 296 291 284 247 226 201 204 227 194 191 189 191 197 207
258 264 270 273 273 268 261 261 264 262 267 271 275 288 290 291 292 300 302 307 311 308 309 317 302 288 286 234 194 177 189 191 185 190 192 199 205 209
254 258 262 263 263 264 263 260 262 264 264 269 275 279 287 292 297 300 304 309 306 316 313 313 325 4 294 160 187 169 185 189 186 187 196 202 208 218
257 255 255 256 256 260 262 260 262 256 257 263 270 279 285 291 294 298 301 304 305 314 310 317 4 92 99 166 178 206 192 188 186 187 198 204 212 216
245 252 258 260 259 260 261 256 249 252 259 266 273 277 281 289 292 292 297 303 289 271 278 309 291 212 174 169 190 183 176 181 185 196 203 209 215 217
250 255 261 264 262 257 258 255 257 260 265 272 274 277 280 278 274 291 304 292 245 240 236 264 296 200 176 163 163 173 187 182 183 195 204 213 221 228
251 257 259 258 255 255 254 257 261 266 268 268 268 264 258 248 267 296 287 252 229 231 244 230 197 185 185 171 172 186 179 185 190 204 206 209 213 213
255 251 249 252 254 255 260 262 264 262 259 257 252 247 239 252 257 246 225 233 217 215 203 190 178 182 186 200 182 177 186 193 219 223 214 209 206 215
242 246 246 250 254 259 260 257 253 254 251 246 244 246 233 231 250 227 225 221 198 170 188 180 183 190 193 199 191 195 197 197 193 207 217 223 216 225
249 251 252 251 250 248 247 250 249 245 242 238 230 228 224 229 228 218 218 205 196 171 176 199 199 194 201 198 197 192 193 199 207 208 211 219 228 237
Wind_Speed_850mb
33 32 31 31 30 34 33 34 32 37 41 34 34 27 24 24 23 27 29 28 28 27 26 26 26 27 29 30 30 28 26 27 27 27 27 29 27 22
35 36 34 32 35 35 34 35 37 39 48 42 34 34 30 29 30 33 34 35 38 37 36 36 35 33 33 35 35 33 29 28 28 29 30 28 23 21
33 38 41 37 38 40 43 45 46 47 53 53 46 39 39 41 41 41 42 46 46 46 46 44 44 43 41 41 41 37 34 31 29 28 27 23 17 19
42 42 41 43 47 45 46 51 54 54 59 65 62 57 54 50 50 51 49 51 53 53 54 53 51 50 49 48 47 44 40 33 33 30 22 23 21 22
51 53 47 44 48 54 56 57 57 57 62 70 75 73 69 66 65 66 66 64 64 61 61 63 61 57 54 54 54 51 47 43 40 40 29 28 25 26
51 54 51 49 46 47 53 60 64 66 69 73 77 81 80 77 78 79 82 81 81 74 71 70 69 68 63 52 59 63 62 55 53 48 41 35 29 30
58 55 53 51 47 46 49 50 54 60 67 73 81 85 85 84 82 83 89 86 89 83 84 86 78 77 76 68 60 71 68 63 63 55 50 45 32 33
65 63 61 59 58 57 58 59 61 63 67 71 78 84 85 84 80 80 84 85 94 81 70 76 79 91 86 76 67 74 82 74 68 59 53 51 40 33
78 75 73 72 69 69 67 69 72 75 75 79 89 92 93 86 85 86 88 90 95 91 83 86 79 86 80 87 80 79 88 75 71 65 56 52 44 36
82 82 83 81 78 74 73 76 77 77 76 76 83 89 86 80 78 76 79 89 95 92 89 96 91 95 87 87 85 76 87 89 74 71 54 56 45 39
81 81 80 77 74 71 71 74 75 78 75 73 74 74 65 53 53 70 80 85 94 91 88 91 88 92 100 100 96 83 78 89 69 66 57 57 49 42
69 72 72 71 68 64 68 70 76 76 68 57 45 44 47 52 54 54 61 74 83 87 75 71 76 79 67 86 94 89 82 80 57 54 48 51 54 49
62 64 62 57 54 52 51 54 60 43 42 50 56 61 58 61 55 54 58 64 60 79 73 80 86 75 82 62 66 96 91 66 47 52 59 55 57 46
64 63 61 53 47 44 43 45 39 39 45 51 55 59 61 62 61 63 61 62 63 58 55 60 76 82 77 75 65 53 51 56 56 63 60 60 57 51
59 59 56 53 48 44 42 39 39 42 46 55 58 55 56 58 61 63 62 63 61 44 44 43 54 61 66 59 50 62 44 60 56 65 59 64 59 52
52 52 52 54 54 52 51 48 50 49 47 51 53 56 57 59 63 64 67 52 35 35 24 29 37 26 18 17 45 35 53 71 67 65 64 61 55 48
37 44 50 50 51 55 54 52 48 46 48 52 55 55 56 58 58 61 39 23 23 18 20 21 11 18 10 8 29 32 56 58 61 62 64 60 52 46
40 47 51 51 51 49 50 49 48 51 53 54 53 52 52 52 47 32 19 22 14 9 13 10 7 13 16 16 25 39 51 51 56 58 56 54 50 45
44 47 48 46 45 43 43 44 47 47 49 49 49 45 41 33 23 19 22 20 12 9 16 16 13 20 29 38 40 41 34 48 50 55 52 48 43 37
43 45 47 49 49 43 44 44 45 49 48 45 41 33 28 23 21 18 11 8 9 14 17 9 13 20 31 42 36 40 39 44 48 45 49 46 40 38
46 44 42 41 40 40 45 49 51 48 44 41 35 29 27 20 16 11 5 7 9 12 19 21 27 23 25 19 23 40 45 42 33 38 45 48 48 43
41 42 42 44 46 50 51 48 45 44 40 35 32 28 25 19 14 16 10 6 10 18 22 37 31 33 35 30 29 33 35 36 34 33 31 36 43 40
41 43 45 43 42 43 43 42 39 34 32 30 28 25 25 21 19 18 17 15 16 20 25 30 33 35 34 34 31 29 32 33 35 43 47 46 35 32
Wind_Direction_850mb
249 254 259 249 255 260 267 268 277 289 295 297 301 303 305 293 289 280 278 275 276 275 274 273 272 266 266 268 271 276 283 290 294 298 301 303 303 305
251 253 261 259 253 259 263 267 271 280 286 291 300 301 302 296 295 280 278 276 269 270 271 271 270 270 267 265 265 268 272 280 286 291 295 302 295 298
257 257 258 261 260 259 261 264 267 272 280 286 290 292 290 287 288 284 280 274 271 267 268 269 269 268 269 269 264 263 265 271 277 281 292 291 278 285
261 264 265 262 258 259 264 265 267 269 273 280 285 287 287 288 286 282 280 273 270 266 266 269 271 271 271 273 267 259 260 263 268 268 271 266 267 277
260 262 264 265 263 261 261 265 266 268 270 275 281 283 284 283 284 284 284 280 276 274 269 262 260 263 266 267 259 256 252 251 253 259 255 260 260 278
258 256 255 258 261 265 264 265 267 270 273 275 277 280 283 285 284 283 283 283 283 282 278 272 265 260 254 265 258 251 251 248 245 248 251 252 255 266
253 253 254 256 260 264 269 270 271 272 273 275 276 278 279 281 282 287 287 289 286 281 278 274 269 262 253 257 252 253 246 242 246 245 253 250 253 260
254 254 256 259 260 263 266 269 273 274 275 276 278 278 282 285 289 290 293 291 289 292 288 285 277 268 261 251 255 254 247 243 245 248 248 248 246 249
256 258 260 261 264 267 268 269 269 270 273 277 279 279 283 286 291 292 291 291 290 293 288 286 281 275 271 257 250 255 246 250 251 249 242 231 232 233
257 259 261 264 265 266 268 269 269 269 269 271 274 281 285 292 294 293 292 290 290 292 289 283 287 279 272 252 256 255 249 246 257 244 254 223 221 220
257 259 260 262 263 266 267 268 270 271 273 275 278 281 285 286 284 287 288 289 291 293 298 289 290 277 271 268 264 247 247 242 248 249 223 215 207 210
259 260 262 263 264 263 265 269 271 273 283 290 286 282 284 283 283 283 289 291 295 290 302 291 296 284 258 261 266 246 234 239 244 234 211 200 199 206
262 263 265 267 269 269 265 263 267 282 284 286 290 294 292 294 297 302 305 302 302 300 307 299 291 288 278 252 240 231 220 224 233 204 194 195 198 208
264 270 273 275 273 269 265 262 264 270 272 275 281 286 294 303 306 306 305 304 300 297 310 300 296 291 284 247 226 201 204 227 194 191 189 191 197 207
258 264 270 273 273 268 261 261 264 262 267 271 275 288 290 291 292 300 302 307 311 308 309 317 302 288 286 234 194 177 189 191 185 190 192 199 205 209
254 258 262 263 263 264 263 260 262 264 264 269 275 279 287 292 297 300 304 309 306 316 313 313 325 4 294 160 187 169 185 189 186 187 196 202 208 218
257 255 255 256 256 260 262 260 262 256 257 263 270 279 285 291 294 298 301 304 305 314 310 317 4 92 99 166 178 206 192 188 186 187 198 204 212 216
245 252 258 260 259 260 261 256 249 252 259 266 273 277 281 289 292 292 297 303 289 271 278 309 291 212 174 169 190 183 176 181 185 196 203 209 215 217
250 255 261 264 262 257 258 255 257 260 265 272 274 277 280 278 274 291 304 292 245 240 236 264 296 200 176 163 163 173 187 182 183 195 204 213 221 228
251 257 259 258 255 255 254 257 261 266 268 268 268 264 258 248 267 296 287 252 229 231 244 230 197 185 185 171 172 186 179 185 190 204 206 209 213 213
255 251 249 252 254 255 260 262 264 262 259 257 252 247 239 252 257 246 225 233 217 215 203 190 178 182 186 200 182 177 186 193 219 223 214 209 206 215
242 246 246 250 254 259 260 257 253 254 251 246 244 246 233 231 250 227 225 221 198 170 188 180 183 190 193 199 191 195 197 197 193 207 217 223 216 225
249 251 252 251 250 248 247 250 249 245 242 238 230 228 224 229 228 218 218 205 196 171 176 199 199 194 201 198 197 192 193 199 207 208 211 219 228 237